STARLINK-2492 (48149 NORAD) Tracking and Keplerian Element Data

This shows tracking and keplerian element data for the satellite.

Feedback or suggestion? Click here.




ElementValue
Catalog48149
NameSTARLINK-2492
Epoch Orbit187
Epoch Day136.91668981
Epoch Year2021
RAAN145.4065
Inclination53.0461
Eccentricity0.0002257
Argument of Perigee22.5897
Mean Anonmoly234.8087
Mean Motion15.73213266
Decay Rate-1.114E-05
L11 48149U 21027BK 21136.91668981 -.00001114 00000-0 -35005-5 0 9996
L22 48149 53.0461 145.4065 0002257 22.5897 234.8087 15.73213266 1875

Live tracking and technical data element details for STARLINK-2492 (NORAD 48149). STARLINK-2492 can be tracked NOW for your location showing map with azimuth and elevation plus other details from your city location.

Track the satellite on the map from your city or location and see movement details for azimuth, elevation, latitude, longitude, range, height, and movement on the map or in text.







IsCatalogInMostPopularTable: catalog: 48149, numindb: 14
Update: records affected: 1



GetName: 48149 STARLINK-2492

Hit Count: updated at: Mon, 17 May 2021 15:10:05 GMT